When you browse on this site, cookies collect data to enhance your experience and personalize the content and advertising you see.
Visit our Privacy Policy to learn more. By continuing to use the site, you agree to this use of cookies and data.
  • In Hungary
  • List of Countries
  • For 7 days
  • Water Temperature
  • Weather Map
  • News
  • Weather Widgets
  • user-avatar
    Login

    Hourly Weather Zhuravlevka

    Today, 16 October, Wednesday

    Time Temperature Precipitation Wind Pressure Humidity
    00:00 +12°C° 0 mm 4 mps 759 mmHg 81%
    01:00 +12°C° 0 mm 4 mps 759 mmHg 81%
    02:00 +11°C° 0 mm 4 mps 760 mmHg 81%
    03:00 +10°C° 0 mm 4 mps 760 mmHg 84%
    04:00 +8°C° 0 mm 4 mps 761 mmHg 83%
    05:00 +8°C° 0 mm 4 mps 761 mmHg 82%
    06:00 +7°C° 0 mm 4 mps 762 mmHg 81%
    07:00 +8°C° 0 mm 4 mps 762 mmHg 75%
    08:00 +8°C° 0 mm 4 mps 763 mmHg 69%
    09:00 +9°C° 0 mm 5 mps 764 mmHg 64%
    10:00 +9°C° 0 mm 5 mps 764 mmHg 59%
    11:00 +11°C° 0 mm 4 mps 764 mmHg 54%
    12:00 +12°C° 0 mm 4 mps 764 mmHg 49%
    13:00 +12°C° 0 mm 4 mps 764 mmHg 47%
    14:00 +12°C° 0 mm 4 mps 765 mmHg 45%
    15:00 +11°C° 0 mm 4 mps 765 mmHg 44%
    16:00 +10°C° 0 mm 3 mps 765 mmHg 47%
    17:00 +9°C° 0 mm 3 mps 765 mmHg 51%
    18:00 +8°C° 0 mm 3 mps 766 mmHg 55%
    19:00 +7°C° 0 mm 3 mps 766 mmHg 56%
    20:00 +5°C° 0 mm 3 mps 766 mmHg 57%
    21:00 +6°C° 0 mm 2 mps 767 mmHg 58%
    22:00 +6°C° 0 mm 2 mps 767 mmHg 60%
    23:00 +5°C° 0 mm 2 mps 767 mmHg 61%

    Tomorrow, 17 October, Thursday

    Time Temperature Precipitation Wind Pressure Humidity
    00:00 +5°C° 0 mm 2 mps 767 mmHg 63%
    01:00 +5°C° 0 mm 2 mps 767 mmHg 64%
    02:00 +4°C° 0 mm 2 mps 767 mmHg 65%
    03:00 +4°C° 0 mm 2 mps 768 mmHg 66%
    04:00 +4°C° 0 mm 2 mps 767 mmHg 68%
    05:00 +3°C° 0 mm 3 mps 767 mmHg 69%
    06:00 +3°C° 0 mm 3 mps 767 mmHg 71%
    07:00 +4°C° 0 mm 3 mps 767 mmHg 65%
    08:00 +5°C° 0 mm 3 mps 767 mmHg 60%
    09:00 +8°C° 0 mm 3 mps 767 mmHg 54%
    10:00 +9°C° 0 mm 3 mps 767 mmHg 49%
    11:00 +10°C° 0 mm 4 mps 767 mmHg 43%
    12:00 +12°C° 0 mm 4 mps 767 mmHg 38%
    13:00 +12°C° 0 mm 4 mps 766 mmHg 37%
    14:00 +12°C° 0 mm 4 mps 765 mmHg 36%
    15:00 +13°C° 0 mm 4 mps 765 mmHg 36%
    16:00 +11°C° 0 mm 4 mps 765 mmHg 39%
    17:00 +10°C° 0 mm 3 mps 764 mmHg 43%
    18:00 +9°C° 0 mm 3 mps 764 mmHg 46%
    19:00 +9°C° 0 mm 3 mps 764 mmHg 48%
    20:00 +8°C° 0 mm 3 mps 764 mmHg 49%
    21:00 +8°C° 0 mm 3 mps 763 mmHg 50%
    22:00 +7°C° 0 mm 3 mps 763 mmHg 51%
    23:00 +7°C° 0 mm 3 mps 763 mmHg 52%

    Day after tomorrow, 18 October, Friday

    Time Temperature Precipitation Wind Pressure Humidity
    00:00 +7°C° 0 mm 3 mps 762 mmHg 53%
    01:00 +7°C° 0 mm 3 mps 762 mmHg 54%
    02:00 +5°C° 0 mm 3 mps 762 mmHg 54%
    03:00 +5°C° 0 mm 3 mps 762 mmHg 55%
    04:00 +5°C° 0 mm 3 mps 761 mmHg 56%
    05:00 +5°C° 0 mm 3 mps 761 mmHg 57%
    06:00 +5°C° 0 mm 3 mps 761 mmHg 57%
    07:00 +8°C° 0 mm 3 mps 760 mmHg 55%
    08:00 +8°C° 0 mm 4 mps 760 mmHg 52%
    09:00 +11°C° 0 mm 4 mps 760 mmHg 49%
    10:00 +12°C° 0 mm 5 mps 759 mmHg 48%
    11:00 +14°C° 0 mm 5 mps 759 mmHg 47%
    12:00 +16°C° 0 mm 5 mps 759 mmHg 46%
    13:00 +16°C° 0 mm 5 mps 758 mmHg 47%
    14:00 +17°C° 0 mm 5 mps 758 mmHg 48%
    15:00 +17°C° 0 mm 5 mps 757 mmHg 49%
    16:00 +16°C° 0 mm 5 mps 757 mmHg 55%
    17:00 +14°C° 0 mm 4 mps 757 mmHg 61%
    18:00 +13°C° 0 mm 3 mps 757 mmHg 67%
    19:00 +12°C° 0 mm 3 mps 757 mmHg 71%
    20:00 +12°C° 0 mm 3 mps 758 mmHg 74%
    21:00 +12°C° 0 mm 3 mps 758 mmHg 78%
    22:00 +12°C° 0 mm 2 mps 758 mmHg 81%
    23:00 +12°C° 0 mm 2 mps 758 mmHg 84%

    19 October, Saturday

    Time Temperature Precipitation Wind Pressure Humidity
    00:00 +12°C° 0 mm 2 mps 758 mmHg 87%
    01:00 +10°C° 0 mm 2 mps 758 mmHg 88%
    02:00 +10°C° 0 mm 2 mps 758 mmHg 88%
    03:00 +10°C° 0 mm 2 mps 758 mmHg 88%
    04:00 +9°C° 0 mm 2 mps 759 mmHg 89%
    05:00 +9°C° 0 mm 2 mps 759 mmHg 90%
    06:00 +9°C° 0 mm 2 mps 759 mmHg 91%
    07:00 +10°C° 0 mm 2 mps 759 mmHg 85%
    08:00 +12°C° 0 mm 2 mps 760 mmHg 79%
    09:00 +13°C° 0 mm 2 mps 760 mmHg 73%
    10:00 +13°C° 0 mm 3 mps 760 mmHg 67%
    11:00 +14°C° 0 mm 3 mps 760 mmHg 61%
    12:00 +16°C° 0 mm 3 mps 761 mmHg 55%
    13:00 +16°C° 0 mm 3 mps 761 mmHg 57%
    14:00 +14°C° 0 mm 4 mps 761 mmHg 58%
    15:00 +14°C° 0 mm 4 mps 761 mmHg 60%
    16:00 +13°C° 0 mm 3 mps 761 mmHg 67%
    17:00 +12°C° 0 mm 3 mps 761 mmHg 73%
    18:00 +12°C° 0 mm 2 mps 762 mmHg 79%
    19:00 +12°C° 0 mm 2 mps 762 mmHg 83%
    20:00 +10°C° 0 mm 2 mps 762 mmHg 87%
    21:00 +9°C° 0 mm 2 mps 763 mmHg 91%
    22:00 +9°C° 0 mm 2 mps 763 mmHg 92%
    23:00 +9°C° 0 mm 2 mps 763 mmHg 93%

    20 October, Sunday

    Time Temperature Precipitation Wind Pressure Humidity
    00:00 +8°C° 0 mm 2 mps 763 mmHg 93%
    01:00 +8°C° 0 mm 2 mps 763 mmHg 93%
    02:00 +8°C° 0 mm 2 mps 764 mmHg 92%
    03:00 +8°C° 0 mm 2 mps 764 mmHg 92%
    04:00 +8°C° 0 mm 2 mps 764 mmHg 91%
    05:00 +8°C° 0 mm 2 mps 764 mmHg 91%
    06:00 +8°C° 0 mm 2 mps 765 mmHg 91%
    07:00 +8°C° 0 mm 2 mps 765 mmHg 86%
    08:00 +9°C° 0 mm 2 mps 765 mmHg 82%
    09:00 +10°C° 0 mm 2 mps 765 mmHg 77%
    10:00 +12°C° 0 mm 2 mps 766 mmHg 72%
    11:00 +13°C° 0 mm 2 mps 766 mmHg 67%
    12:00 +14°C° 0 mm 2 mps 766 mmHg 62%
    13:00 +14°C° 0 mm 2 mps 766 mmHg 61%
    14:00 +14°C° 0 mm 2 mps 766 mmHg 60%
    15:00 +14°C° 0 mm 2 mps 766 mmHg 59%
    16:00 +14°C° 0 mm 1 mps 766 mmHg 61%
    17:00 +13°C° 0 mm 1 mps 766 mmHg 64%
    18:00 +12°C° 0 mm 1 mps 766 mmHg 66%
    19:00 +12°C° 0 mm 1 mps 766 mmHg 70%
    20:00 +11°C° 0 mm 1 mps 766 mmHg 73%
    21:00 +10°C° 0 mm 1 mps 766 mmHg 76%
    22:00 +10°C° 0 mm 1 mps 766 mmHg 77%
    23:00 +10°C° 0 mm 1 mps 766 mmHg 77%

    21 October, Monday

    Time Temperature Precipitation Wind Pressure Humidity
    00:00 +8°C° 0 mm 0 mps 767 mmHg 78%
    01:00 +8°C° 0 mm 0 mps 767 mmHg 80%
    02:00 +8°C° 0 mm 0 mps 767 mmHg 81%
    03:00 +8°C° 0 mm 0 mps 767 mmHg 83%
    04:00 +7°C° 0 mm 0 mps 767 mmHg 83%
    05:00 +7°C° 0 mm 0 mps 767 mmHg 84%
    06:00 +8°C° 0 mm 1 mps 767 mmHg 85%
    07:00 +9°C° 0 mm 1 mps 767 mmHg 80%
    08:00 +11°C° 0 mm 1 mps 767 mmHg 74%
    09:00 +12°C° 0 mm 1 mps 767 mmHg 69%
    10:00 +13°C° 0 mm 1 mps 767 mmHg 65%
    11:00 +15°C° 0 mm 2 mps 767 mmHg 62%
    12:00 +16°C° 0 mm 2 mps 767 mmHg 58%
    13:00 +16°C° 0 mm 2 mps 766 mmHg 58%
    14:00 +16°C° 0 mm 2 mps 766 mmHg 57%
    15:00 +17°C° 0 mm 2 mps 766 mmHg 57%
    16:00 +16°C° 0 mm 2 mps 766 mmHg 62%
    17:00 +14°C° 0 mm 2 mps 766 mmHg 67%
    18:00 +13°C° 0 mm 2 mps 765 mmHg 72%
    19:00 +12°C° 0 mm 2 mps 765 mmHg 74%
    20:00 +11°C° 0 mm 3 mps 765 mmHg 75%
    21:00 +11°C° 0 mm 3 mps 765 mmHg 77%
    22:00 +10°C° 0 mm 3 mps 765 mmHg 78%
    23:00 +10°C° 0 mm 3 mps 764 mmHg 79%
    Show more